Time,TemperatureF,DewpointF,PressureIn,WindDirection,WindDirectionDegrees,WindSpeedMPH,WindSpeedGustMPH,Humidity,HourlyPrecipIn,Conditions,Clouds,dailyrainin,SoftwareType,DateUTC
2013-01-19 00:01:00,30.8,28.3,30.25,NNE,23,0.0,1.1,90,0.00,,,0.00,WUHU216HW,2013-01-19 08:01:00,
2013-01-19 00:06:00,30.6,28.1,30.25,NNE,23,0.4,0.7,90,0.00,,,0.00,WUHU216HW,2013-01-19 08:06:00,
2013-01-19 00:12:00,30.6,28.1,30.25,NNE,23,1.6,1.6,90,0.00,,,0.00,WUHU216HW,2013-01-19 08:12:00,
2013-01-19 00:17:00,30.6,28.1,30.25,NNE,23,0.0,1.8,90,0.00,,,0.00,WUHU216HW,2013-01-19 08:17:00,
2013-01-19 00:23:00,30.4,27.9,30.25,NNE,23,0.2,1.1,90,0.00,,,0.00,WUHU216HW,2013-01-19 08:23:00,
2013-01-19 00:28:00,30.4,27.9,30.25,NNE,23,0.2,1.1,90,0.00,,,0.00,WUHU216HW,2013-01-19 08:28:00,
2013-01-19 00:34:00,30.2,27.7,30.25,NNE,23,0.7,0.7,90,0.00,,,0.00,WUHU216HW,2013-01-19 08:34:00,
2013-01-19 00:39:00,29.9,27.4,30.25,NNE,23,0.4,0.7,90,0.00,,,0.00,WUHU216HW,2013-01-19 08:39:00,
2013-01-19 00:45:00,29.9,27.6,30.25,NNE,23,0.0,0.7,91,0.00,,,0.00,WUHU216HW,2013-01-19 08:45:00,
2013-01-19 00:50:00,29.9,27.6,30.25,NNE,23,0.9,1.1,91,0.00,,,0.00,WUHU216HW,2013-01-19 08:50:00,
2013-01-19 00:56:00,30.1,27.8,30.25,NNE,23,1.3,1.3,91,0.00,,,0.00,WUHU216HW,2013-01-19 08:56:00,
2013-01-19 01:01:00,30.2,28.0,30.25,NNE,23,0.4,1.3,91,0.00,,,0.00,WUHU216HW,2013-01-19 09:01:00,
2013-01-19 01:07:00,30.2,28.0,30.25,NNE,23,0.0,1.1,91,0.00,,,0.00,WUHU216HW,2013-01-19 09:07:00,
2013-01-19 01:12:00,30.2,28.0,30.25,NNE,23,0.4,0.4,91,0.00,,,0.00,WUHU216HW,2013-01-19 09:12:00,
2013-01-19 01:18:00,30.2,28.0,30.25,NNE,23,0.0,0.4,91,0.00,,,0.00,WUHU216HW,2013-01-19 09:18:00,
2013-01-19 01:23:00,30.2,28.0,30.25,NNE,23,0.2,0.9,91,0.00,,,0.00,WUHU216HW,2013-01-19 09:23:00,
2013-01-19 01:29:00,30.2,27.7,30.25,NNE,23,0.4,0.9,90,0.00,,,0.00,WUHU216HW,2013-01-19 09:29:00,
2013-01-19 01:34:00,30.2,27.7,30.25,NNE,23,0.4,1.1,90,0.00,,,0.00,WUHU216HW,2013-01-19 09:34:00,
2013-01-19 01:40:00,30.1,27.5,30.25,NNE,23,0.0,1.8,90,0.00,,,0.00,WUHU216HW,2013-01-19 09:40:00,
2013-01-19 01:45:00,29.9,27.4,30.25,NNE,23,0.0,1.8,90,0.00,,,0.00,WUHU216HW,2013-01-19 09:45:00,
2013-01-19 01:51:00,29.9,27.4,30.25,NNE,23,0.4,0.4,90,0.00,,,0.00,WUHU216HW,2013-01-19 09:51:00,
2013-01-19 01:56:00,29.9,27.4,30.25,NNE,23,0.9,1.1,90,0.00,,,0.00,WUHU216HW,2013-01-19 09:56:00,
2013-01-19 02:02:00,29.9,27.6,30.25,NNE,23,0.7,1.1,91,0.00,,,0.00,WUHU216HW,2013-01-19 10:02:00,
2013-01-19 02:07:00,29.9,27.6,30.26,NNE,23,0.0,0.9,91,0.00,,,0.00,WUHU216HW,2013-01-19 10:07:00,
2013-01-19 02:13:00,30.1,27.8,30.25,NNE,23,0.0,0.4,91,0.00,,,0.00,WUHU216HW,2013-01-19 10:13:00,
2013-01-19 02:18:00,30.2,28.0,30.25,NNE,23,0.4,0.4,91,0.00,,,0.00,WUHU216HW,2013-01-19 10:18:00,
2013-01-19 02:24:00,30.2,28.0,30.26,NNE,23,0.0,0.4,91,0.00,,,0.00,WUHU216HW,2013-01-19 10:24:00,
2013-01-19 02:29:00,30.4,27.9,30.26,NNE,23,0.0,0.4,90,0.00,,,0.00,WUHU216HW,2013-01-19 10:29:00,
2013-01-19 02:35:00,30.2,27.7,30.26,NNE,23,0.0,0.4,90,0.00,,,0.00,WUHU216HW,2013-01-19 10:35:00,
2013-01-19 02:46:00,30.1,27.5,30.26,NNE,23,0.2,0.4,90,0.00,,,0.00,WUHU216HW,2013-01-19 10:46:00,
2013-01-19 02:51:00,30.1,27.5,30.26,NNE,23,0.0,0.7,90,0.00,,,0.00,WUHU216HW,2013-01-19 10:51:00,
2013-01-19 02:57:00,30.2,27.7,30.26,NNE,23,0.2,0.7,90,0.00,,,0.00,WUHU216HW,2013-01-19 10:57:00,
2013-01-19 03:02:00,30.1,27.5,30.26,NNE,23,0.4,0.4,90,0.00,,,0.00,WUHU216HW,2013-01-19 11:02:00,
2013-01-19 03:08:00,30.1,27.5,30.26,NNE,23,0.0,0.4,90,0.00,,,0.00,WUHU216HW,2013-01-19 11:08:00,
2013-01-19 03:13:00,30.1,27.5,30.26,NNE,23,0.4,0.7,90,0.00,,,0.00,WUHU216HW,2013-01-19 11:13:00,
2013-01-19 03:19:00,30.1,27.5,30.26,NNE,23,1.1,1.1,90,0.00,,,0.00,WUHU216HW,2013-01-19 11:19:00,
2013-01-19 03:24:00,30.1,27.5,30.26,NNE,23,0.4,1.1,90,0.00,,,0.00,WUHU216HW,2013-01-19 11:24:00,
2013-01-19 03:30:00,30.2,27.7,30.25,NNE,23,0.7,1.1,90,0.00,,,0.00,WUHU216HW,2013-01-19 11:30:00,
2013-01-19 03:35:00,30.1,27.5,30.25,NNE,23,0.7,1.1,90,0.00,,,0.00,WUHU216HW,2013-01-19 11:35:00,
2013-01-19 03:41:00,29.9,27.4,30.26,NNE,23,0.2,1.1,90,0.00,,,0.00,WUHU216HW,2013-01-19 11:41:00,
2013-01-19 03:46:00,29.9,27.4,30.26,NNE,23,0.2,0.9,90,0.00,,,0.00,WUHU216HW,2013-01-19 11:46:00,
2013-01-19 03:52:00,29.9,27.4,30.26,NNE,23,0.2,0.7,90,0.00,,,0.00,WUHU216HW,2013-01-19 11:52:00,
2013-01-19 03:57:00,29.9,27.4,30.26,NNE,23,0.2,0.7,90,0.00,,,0.00,WUHU216HW,2013-01-19 11:57:00,
2013-01-19 04:03:00,29.9,27.4,30.26,NNE,23,0.0,0.7,90,0.00,,,0.00,WUHU216HW,2013-01-19 12:03:00,
2013-01-19 04:08:00,29.9,27.4,30.26,NNE,23,0.0,0.4,90,0.00,,,0.00,WUHU216HW,2013-01-19 12:08:00,
2013-01-19 04:14:00,29.9,27.4,30.26,NNE,23,0.2,0.4,90,0.00,,,0.00,WUHU216HW,2013-01-19 12:14:00,
2013-01-19 04:19:00,29.9,27.4,30.26,NNE,23,0.2,0.4,90,0.00,,,0.00,WUHU216HW,2013-01-19 12:19:00,
2013-01-19 04:25:00,29.9,27.4,30.26,NNE,23,0.2,0.7,90,0.00,,,0.00,WUHU216HW,2013-01-19 12:25:00,
2013-01-19 04:30:00,29.9,27.4,30.26,NNE,23,0.4,0.9,90,0.00,,,0.00,WUHU216HW,2013-01-19 12:30:00,
2013-01-19 04:36:00,29.9,27.4,30.26,NNE,23,0.9,0.9,90,0.00,,,0.00,WUHU216HW,2013-01-19 12:36:00,
2013-01-19 04:41:00,29.9,27.4,30.26,NNE,23,0.9,1.1,90,0.00,,,0.00,WUHU216HW,2013-01-19 12:41:00,
2013-01-19 04:47:00,29.7,27.2,30.26,NNE,23,1.3,1.6,90,0.00,,,0.00,WUHU216HW,2013-01-19 12:47:00,
2013-01-19 04:52:00,29.5,27.0,30.25,NNE,23,0.9,1.8,90,0.00,,,0.00,WUHU216HW,2013-01-19 12:52:00,
2013-01-19 04:58:00,29.5,27.0,30.26,NNE,23,0.4,1.3,90,0.00,,,0.00,WUHU216HW,2013-01-19 12:58:00,
2013-01-19 05:03:00,29.5,27.0,30.26,NNE,23,0.4,0.9,90,0.00,,,0.00,WUHU216HW,2013-01-19 13:03:00,
2013-01-19 05:09:00,29.3,26.8,30.26,NNE,23,0.7,1.1,90,0.00,,,0.00,WUHU216HW,2013-01-19 13:09:00,
2013-01-19 05:14:00,29.3,26.8,30.26,NNE,23,0.7,1.1,90,0.00,,,0.00,WUHU216HW,2013-01-19 13:14:00,
2013-01-19 05:20:00,29.2,26.6,30.26,NNE,23,0.4,1.3,90,0.00,,,0.00,WUHU216HW,2013-01-19 13:20:00,
2013-01-19 05:25:00,29.2,26.6,30.26,NNE,23,0.0,1.6,90,0.00,,,0.00,WUHU216HW,2013-01-19 13:25:00,
2013-01-19 05:31:00,29.2,26.6,30.27,NNE,23,0.7,1.6,90,0.00,,,0.00,WUHU216HW,2013-01-19 13:31:00,
2013-01-19 05:36:00,29.2,26.6,30.26,NNE,23,0.4,1.1,90,0.00,,,0.00,WUHU216HW,2013-01-19 13:36:00,
2013-01-19 05:42:00,29.2,26.6,30.26,NNE,23,0.2,1.1,90,0.00,,,0.00,WUHU216HW,2013-01-19 13:42:00,
2013-01-19 05:47:00,29.0,26.5,30.27,NNE,23,0.0,0.7,90,0.00,,,0.00,WUHU216HW,2013-01-19 13:47:00,
2013-01-19 05:53:00,28.8,26.3,30.26,NNE,23,0.4,0.4,90,0.00,,,0.00,WUHU216HW,2013-01-19 13:53:00,
2013-01-19 05:58:00,29.0,26.5,30.27,NNE,23,0.4,1.1,90,0.00,,,0.00,WUHU216HW,2013-01-19 13:58:00,
2013-01-19 06:04:00,29.0,26.5,30.27,NNE,23,0.2,1.1,90,0.00,,,0.00,WUHU216HW,2013-01-19 14:04:00,
2013-01-19 06:09:00,29.0,26.5,30.26,NNE,23,0.4,1.1,90,0.00,,,0.00,WUHU216HW,2013-01-19 14:09:00,
2013-01-19 06:15:00,29.2,26.6,30.26,NNE,23,0.4,0.7,90,0.00,,,0.00,WUHU216HW,2013-01-19 14:15:00,
2013-01-19 06:20:00,29.2,26.6,30.26,NNE,23,0.4,0.7,90,0.00,,,0.00,WUHU216HW,2013-01-19 14:20:00,
2013-01-19 06:25:00,29.2,26.6,30.27,NNE,23,1.1,1.1,90,0.00,,,0.00,WUHU216HW,2013-01-19 14:25:00,
2013-01-19 06:31:00,29.2,26.6,30.27,NNE,23,0.0,1.1,90,0.00,,,0.00,WUHU216HW,2013-01-19 14:31:00,
2013-01-19 06:37:00,29.2,26.6,30.26,NNE,23,0.0,1.1,90,0.00,,,0.00,WUHU216HW,2013-01-19 14:37:00,
2013-01-19 06:42:00,29.0,26.5,30.27,NNE,23,0.2,0.9,90,0.00,,,0.00,WUHU216HW,2013-01-19 14:42:00,
2013-01-19 06:48:00,29.0,26.5,30.27,NNE,23,0.4,1.1,90,0.00,,,0.00,WUHU216HW,2013-01-19 14:48:00,
2013-01-19 06:53:00,29.0,26.5,30.27,NNE,23,0.4,1.1,90,0.00,,,0.00,WUHU216HW,2013-01-19 14:53:00,
2013-01-19 06:59:00,29.0,26.5,30.26,NNE,23,0.7,1.1,90,0.00,,,0.00,WUHU216HW,2013-01-19 14:59:00,
2013-01-19 07:04:00,28.8,26.3,30.26,NNE,23,0.0,1.1,90,0.00,,,0.00,WUHU216HW,2013-01-19 15:04:00,
2013-01-19 07:09:00,28.8,26.3,30.27,NNE,23,0.0,0.7,90,0.00,,,0.00,WUHU216HW,2013-01-19 15:09:00,
2013-01-19 07:15:00,28.8,26.3,30.26,NNE,23,0.9,1.1,90,0.00,,,0.00,WUHU216HW,2013-01-19 15:15:00,
2013-01-19 07:20:00,28.8,26.3,30.26,NNE,23,0.7,1.1,90,0.00,,,0.00,WUHU216HW,2013-01-19 15:20:00,
2013-01-19 07:26:00,28.8,26.3,30.26,NNE,23,0.0,1.1,90,0.00,,,0.00,WUHU216HW,2013-01-19 15:26:00,
2013-01-19 07:31:00,28.8,26.3,30.26,NNE,23,0.2,0.9,90,0.00,,,0.00,WUHU216HW,2013-01-19 15:31:00,
2013-01-19 07:37:00,28.8,26.3,30.26,NNE,23,0.7,1.1,90,0.00,,,0.00,WUHU216HW,2013-01-19 15:37:00,
2013-01-19 07:42:00,28.6,26.1,30.27,NNE,23,0.7,1.6,90,0.00,,,0.00,WUHU216HW,2013-01-19 15:42:00,
2013-01-19 07:48:00,28.4,25.9,30.27,NNE,23,0.7,1.6,90,0.00,,,0.00,WUHU216HW,2013-01-19 15:48:00,
2013-01-19 07:53:00,28.4,25.9,30.27,NNE,23,0.7,1.1,90,0.00,,,0.00,WUHU216HW,2013-01-19 15:53:00,
2013-01-19 07:59:00,28.3,25.7,30.27,NNE,23,0.2,1.1,90,0.00,,,0.00,WUHU216HW,2013-01-19 15:59:00,
2013-01-19 08:04:00,28.1,25.6,30.27,NNE,23,0.4,0.9,90,0.00,,,0.00,WUHU216HW,2013-01-19 16:04:00,
2013-01-19 08:10:00,28.3,25.7,30.27,NNE,23,0.0,0.9,90,0.00,,,0.00,WUHU216HW,2013-01-19 16:10:00,
2013-01-19 08:15:00,28.3,25.7,30.27,NNE,23,0.7,0.7,90,0.00,,,0.00,WUHU216HW,2013-01-19 16:15:00,
2013-01-19 08:21:00,28.4,25.9,30.28,NNE,23,1.1,1.1,90,0.00,,,0.00,WUHU216HW,2013-01-19 16:21:00,
2013-01-19 08:26:00,28.4,25.9,30.28,NNE,23,0.2,1.1,90,0.00,,,0.00,WUHU216HW,2013-01-19 16:26:00,
2013-01-19 08:32:00,28.3,25.7,30.28,NNE,23,0.2,0.4,90,0.00,,,0.00,WUHU216HW,2013-01-19 16:32:00,
2013-01-19 08:37:00,28.4,25.9,30.28,NNE,23,0.2,0.4,90,0.00,,,0.00,WUHU216HW,2013-01-19 16:37:00,
2013-01-19 08:43:00,28.4,25.9,30.28,NNE,23,0.0,0.4,90,0.00,,,0.00,WUHU216HW,2013-01-19 16:43:00,
2013-01-19 08:48:00,28.6,26.1,30.29,NNE,23,0.0,0.7,90,0.00,,,0.00,WUHU216HW,2013-01-19 16:48:00,
2013-01-19 08:54:00,28.6,26.1,30.29,NNE,23,0.9,1.1,90,0.00,,,0.00,WUHU216HW,2013-01-19 16:54:00,
2013-01-19 08:59:00,28.8,26.3,30.29,NNE,23,0.4,1.1,90,0.00,,,0.00,WUHU216HW,2013-01-19 16:59:00,
2013-01-19 09:05:00,29.0,26.5,30.29,NNE,23,0.0,1.1,90,0.00,,,0.00,WUHU216HW,2013-01-19 17:05:00,
2013-01-19 09:10:00,29.0,26.5,30.29,NNE,23,0.9,1.1,90,0.00,,,0.00,WUHU216HW,2013-01-19 17:10:00,
2013-01-19 09:16:00,29.2,26.6,30.29,NNE,23,0.2,1.1,90,0.00,,,0.00,WUHU216HW,2013-01-19 17:16:00,
2013-01-19 09:21:00,29.2,26.6,30.29,NNE,23,0.0,1.6,90,0.00,,,0.00,WUHU216HW,2013-01-19 17:21:00,
2013-01-19 09:27:00,29.2,26.6,30.29,NNE,23,0.2,1.6,90,0.00,,,0.00,WUHU216HW,2013-01-19 17:27:00,
2013-01-19 09:32:00,29.2,26.6,30.30,NNE,23,0.0,1.1,90,0.00,,,0.00,WUHU216HW,2013-01-19 17:32:00,
2013-01-19 09:38:00,29.2,26.6,30.29,NNE,23,0.4,1.1,90,0.00,,,0.00,WUHU216HW,2013-01-19 17:38:00,
2013-01-19 09:43:00,29.3,26.8,30.29,NNE,23,0.4,1.1,90,0.00,,,0.00,WUHU216HW,2013-01-19 17:43:00,
2013-01-19 09:49:00,29.3,26.8,30.30,NNE,23,0.7,1.3,90,0.00,,,0.00,WUHU216HW,2013-01-19 17:49:00,
2013-01-19 09:54:00,29.3,26.8,30.29,NNE,23,0.2,1.3,90,0.00,,,0.00,WUHU216HW,2013-01-19 17:54:00,
2013-01-19 10:00:00,29.5,27.0,30.29,NNE,23,0.4,0.4,90,0.00,,,0.00,WUHU216HW,2013-01-19 18:00:00,
2013-01-19 10:05:00,29.7,27.2,30.30,NNE,23,0.4,0.7,90,0.00,,,0.00,WUHU216HW,2013-01-19 18:05:00,
2013-01-19 10:11:00,29.7,26.9,30.30,NNE,23,0.0,0.9,89,0.00,,,0.00,WUHU216HW,2013-01-19 18:11:00,
2013-01-19 10:16:00,29.7,26.9,30.30,NNE,23,0.0,0.9,89,0.00,,,0.00,WUHU216HW,2013-01-19 18:16:00,
2013-01-19 10:22:00,29.5,26.7,30.29,NNE,23,0.0,0.9,89,0.00,,,0.00,WUHU216HW,2013-01-19 18:22:00,
2013-01-19 10:27:00,29.5,26.7,30.29,NNE,23,0.0,1.3,89,0.00,,,0.00,WUHU216HW,2013-01-19 18:27:00,
2013-01-19 10:33:00,29.7,26.9,30.29,NNE,23,0.9,1.3,89,0.00,,,0.00,WUHU216HW,2013-01-19 18:33:00,
2013-01-19 10:38:00,29.9,27.1,30.29,NNE,23,0.4,1.1,89,0.00,,,0.00,WUHU216HW,2013-01-19 18:38:00,
2013-01-19 10:44:00,30.1,27.3,30.29,NNE,23,0.0,0.9,89,0.00,,,0.00,WUHU216HW,2013-01-19 18:44:00,
2013-01-19 10:49:00,30.2,27.5,30.29,NNE,23,0.7,0.9,89,0.00,,,0.00,WUHU216HW,2013-01-19 18:49:00,
2013-01-19 10:55:00,30.6,27.8,30.29,NNE,23,0.2,0.9,89,0.00,,,0.00,WUHU216HW,2013-01-19 18:55:00,
2013-01-19 11:00:00,30.8,28.0,30.29,NNE,23,0.4,1.1,89,0.00,,,0.00,WUHU216HW,2013-01-19 19:00:00,
2013-01-19 11:06:00,31.0,28.2,30.29,NNE,23,0.0,1.1,89,0.00,,,0.00,WUHU216HW,2013-01-19 19:06:00,
2013-01-19 11:11:00,31.1,28.4,30.29,NNE,23,0.0,0.4,89,0.00,,,0.00,WUHU216HW,2013-01-19 19:11:00,
2013-01-19 11:17:00,31.1,28.4,30.29,NNE,23,0.0,0.4,89,0.00,,,0.00,WUHU216HW,2013-01-19 19:17:00,
2013-01-19 11:22:00,31.1,28.4,30.29,NNE,23,0.0,0.2,89,0.00,,,0.00,WUHU216HW,2013-01-19 19:22:00,
2013-01-19 11:28:00,31.0,28.2,30.29,NNE,23,0.0,0.2,89,0.00,,,0.00,WUHU216HW,2013-01-19 19:28:00,
2013-01-19 11:33:00,31.1,28.6,30.28,NNE,23,0.2,0.4,90,0.00,,,0.00,WUHU216HW,2013-01-19 19:33:00,
2013-01-19 11:39:00,31.0,28.2,30.28,North,0,0.7,0.7,89,0.00,,,0.00,WUHU216HW,2013-01-19 19:39:00,
2013-01-19 11:44:00,31.1,28.6,30.28,NE,45,0.4,0.9,90,0.00,,,0.00,WUHU216HW,2013-01-19 19:44:00,
2013-01-19 11:50:00,31.5,28.7,30.28,NE,45,0.4,0.9,89,0.00,,,0.00,WUHU216HW,2013-01-19 19:50:00,
2013-01-19 11:55:00,31.7,29.2,30.28,North,0,0.0,0.4,90,0.00,,,0.00,WUHU216HW,2013-01-19 19:55:00,
2013-01-19 12:01:00,31.9,29.3,30.27,ENE,68,0.0,1.1,90,0.00,,,0.00,WUHU216HW,2013-01-19 20:01:00,
2013-01-19 12:06:00,32.0,29.5,30.27,NNE,23,0.0,1.1,90,0.00,,,0.00,WUHU216HW,2013-01-19 20:06:00,
2013-01-19 12:12:00,32.4,29.9,30.27,NE,45,0.4,1.1,90,0.00,,,0.00,WUHU216HW,2013-01-19 20:12:00,
2013-01-19 12:17:00,32.4,29.5,30.27,NNE,23,0.0,1.1,89,0.00,,,0.00,WUHU216HW,2013-01-19 20:17:00,
2013-01-19 12:23:00,32.4,29.5,30.26,NNE,23,0.0,1.1,89,0.00,,,0.00,WUHU216HW,2013-01-19 20:23:00,
2013-01-19 12:28:00,32.4,29.5,30.26,NNE,23,0.4,1.1,89,0.00,,,0.00,WUHU216HW,2013-01-19 20:28:00,
2013-01-19 12:39:00,31.7,28.9,30.26,North,0,0.0,0.4,89,0.00,,,0.00,WUHU216HW,2013-01-19 20:39:00,
2013-01-19 12:45:00,31.9,29.1,30.26,NNE,23,0.9,1.3,89,0.00,,,0.00,WUHU216HW,2013-01-19 20:45:00,
2013-01-19 13:01:00,32.8,29.9,30.26,West,270,0.7,1.1,89,0.00,,,0.00,WUHU216HW,2013-01-19 21:01:00,
2013-01-19 13:07:00,32.9,30.1,30.26,NNE,23,1.1,1.1,89,0.00,,,0.00,WUHU216HW,2013-01-19 21:07:00,
2013-01-19 13:12:00,32.8,29.9,30.26,NNE,23,0.0,1.3,89,0.00,,,0.00,WUHU216HW,2013-01-19 21:12:00,
2013-01-19 13:18:00,32.6,29.7,30.26,NNE,23,1.1,1.1,89,0.00,,,0.00,WUHU216HW,2013-01-19 21:18:00,
2013-01-19 13:23:00,32.6,29.7,30.25,North,0,0.0,1.1,89,0.00,,,0.00,WUHU216HW,2013-01-19 21:23:00,
2013-01-19 13:29:00,32.8,29.9,30.25,SE,135,0.2,0.7,89,0.00,,,0.00,WUHU216HW,2013-01-19 21:29:00,
2013-01-19 13:34:00,32.9,30.1,30.25,SE,135,0.4,0.7,89,0.00,,,0.00,WUHU216HW,2013-01-19 21:34:00,
2013-01-19 13:40:00,33.3,30.3,30.25,SE,135,0.0,1.1,89,0.00,,,0.00,WUHU216HW,2013-01-19 21:40:00,
2013-01-19 13:45:00,33.5,30.5,30.25,ENE,68,0.2,1.1,89,0.00,,,0.00,WUHU216HW,2013-01-19 21:45:00,
2013-01-19 13:51:00,33.7,30.7,30.25,NE,45,0.0,1.1,89,0.00,,,0.00,WUHU216HW,2013-01-19 21:51:00,
2013-01-19 13:56:00,33.8,30.9,30.25,NNE,23,0.0,1.1,89,0.00,,,0.00,WUHU216HW,2013-01-19 21:56:00,
2013-01-19 14:02:00,33.8,30.9,30.25,ESE,113,0.7,0.7,89,0.00,,,0.00,WUHU216HW,2013-01-19 22:02:00,
2013-01-19 14:07:00,34.0,31.1,30.25,SE,135,0.0,0.7,89,0.00,,,0.00,WUHU216HW,2013-01-19 22:07:00,
2013-01-19 14:13:00,34.0,31.1,30.25,SE,135,0.0,0.4,89,0.00,,,0.00,WUHU216HW,2013-01-19 22:13:00,
2013-01-19 14:18:00,34.2,31.2,30.25,ESE,113,1.1,1.1,89,0.00,,,0.00,WUHU216HW,2013-01-19 22:18:00,
2013-01-19 14:24:00,34.2,31.2,30.25,ESE,113,0.4,1.1,89,0.00,,,0.00,WUHU216HW,2013-01-19 22:24:00,
2013-01-19 14:29:00,34.2,31.2,30.25,ESE,113,0.0,0.7,89,0.00,,,0.00,WUHU216HW,2013-01-19 22:29:00,
2013-01-19 14:35:00,34.2,31.2,30.25,SE,135,0.2,0.4,89,0.00,,,0.00,WUHU216HW,2013-01-19 22:35:00,
2013-01-19 14:40:00,34.4,31.4,30.25,NW,315,0.4,0.9,89,0.00,,,0.00,WUHU216HW,2013-01-19 22:40:00,
2013-01-19 14:46:00,34.6,31.6,30.25,ESE,113,1.1,1.1,89,0.00,,,0.00,WUHU216HW,2013-01-19 22:46:00,
2013-01-19 14:51:00,34.6,31.6,30.25,East,90,0.0,1.1,89,0.00,,,0.00,WUHU216HW,2013-01-19 22:51:00,
2013-01-19 14:57:00,34.4,31.2,30.25,NE,45,0.0,1.1,88,0.00,,,0.00,WUHU216HW,2013-01-19 22:57:00,
2013-01-19 15:02:00,34.4,31.4,30.25,North,0,0.0,0.9,89,0.00,,,0.00,WUHU216HW,2013-01-19 23:02:00,
2013-01-19 15:08:00,34.6,31.6,30.25,SE,135,0.0,0.7,89,0.00,,,0.00,WUHU216HW,2013-01-19 23:08:00,
2013-01-19 15:13:00,34.6,31.6,30.25,ESE,113,0.7,0.7,89,0.00,,,0.00,WUHU216HW,2013-01-19 23:13:00,
2013-01-19 15:19:00,34.4,31.2,30.25,ESE,113,0.4,0.7,88,0.00,,,0.00,WUHU216HW,2013-01-19 23:19:00,
2013-01-19 15:24:00,34.2,31.0,30.25,SE,135,0.0,0.9,88,0.00,,,0.00,WUHU216HW,2013-01-19 23:24:00,
2013-01-19 15:30:00,34.4,31.2,30.25,ESE,113,1.1,1.1,88,0.00,,,0.00,WUHU216HW,2013-01-19 23:30:00,
2013-01-19 15:35:00,34.2,31.2,30.25,East,90,0.0,1.1,89,0.00,,,0.00,WUHU216HW,2013-01-19 23:35:00,
2013-01-19 15:41:00,34.2,31.2,30.25,ENE,68,0.2,0.9,89,0.00,,,0.00,WUHU216HW,2013-01-19 23:41:00,
2013-01-19 15:46:00,34.2,31.2,30.25,NNE,23,0.4,0.4,89,0.00,,,0.00,WUHU216HW,2013-01-19 23:46:00,
2013-01-19 15:52:00,33.8,30.9,30.25,NW,315,0.2,1.1,89,0.00,,,0.00,WUHU216HW,2013-01-19 23:52:00,
2013-01-19 15:57:00,33.7,30.7,30.25,West,270,0.0,1.1,89,0.00,,,0.00,WUHU216HW,2013-01-19 23:57:00,
2013-01-19 16:03:00,33.7,30.7,30.25,ENE,68,0.7,0.9,89,0.00,,,0.00,WUHU216HW,2013-01-20 00:03:00,
2013-01-19 16:08:00,33.7,30.7,30.25,NE,45,0.4,0.9,89,0.00,,,0.00,WUHU216HW,2013-01-20 00:08:00,
2013-01-19 16:14:00,33.7,30.7,30.26,NNE,23,0.0,0.4,89,0.00,,,0.00,WUHU216HW,2013-01-20 00:14:00,
2013-01-19 16:19:00,33.5,30.5,30.26,NNE,23,0.4,0.4,89,0.00,,,0.00,WUHU216HW,2013-01-20 00:19:00,
2013-01-19 16:25:00,33.5,30.5,30.26,NNE,23,0.4,0.9,89,0.00,,,0.00,WUHU216HW,2013-01-20 00:25:00,
2013-01-19 16:30:00,33.3,30.3,30.26,North,0,0.0,1.1,89,0.00,,,0.00,WUHU216HW,2013-01-20 00:30:00,
2013-01-19 16:36:00,33.1,30.3,30.25,ENE,68,0.4,1.1,89,0.00,,,0.00,WUHU216HW,2013-01-20 00:36:00,
2013-01-19 16:41:00,33.1,30.3,30.25,NNE,23,0.0,1.1,89,0.00,,,0.00,WUHU216HW,2013-01-20 00:41:00,
2013-01-19 16:47:00,32.9,30.1,30.26,North,0,0.0,0.9,89,0.00,,,0.00,WUHU216HW,2013-01-20 00:47:00,
2013-01-19 16:52:00,32.8,29.9,30.26,NNE,23,0.2,0.2,89,0.00,,,0.00,WUHU216HW,2013-01-20 00:52:00,
2013-01-19 16:58:00,32.8,30.2,30.26,North,0,0.7,2.0,90,0.00,,,0.00,WUHU216HW,2013-01-20 00:58:00,
2013-01-19 17:03:00,32.8,30.2,30.26,NNE,23,1.1,2.5,90,0.00,,,0.00,WUHU216HW,2013-01-20 01:03:00,
2013-01-19 17:08:00,32.8,30.2,30.26,NNE,23,0.0,2.5,90,0.00,,,0.00,WUHU216HW,2013-01-20 01:08:00,
2013-01-19 17:14:00,32.6,30.0,30.26,ENE,68,0.4,0.9,90,0.00,,,0.00,WUHU216HW,2013-01-20 01:14:00,
2013-01-19 17:20:00,32.6,30.0,30.26,NE,45,0.0,0.9,90,0.00,,,0.00,WUHU216HW,2013-01-20 01:20:00,
2013-01-19 17:25:00,32.6,30.0,30.26,NNE,23,0.0,0.9,90,0.00,,,0.00,WUHU216HW,2013-01-20 01:25:00,
2013-01-19 17:30:00,32.6,30.0,30.26,North,0,0.0,0.9,90,0.00,,,0.00,WUHU216HW,2013-01-20 01:30:00,
2013-01-19 17:36:00,32.6,30.0,30.26,ENE,68,0.0,0.7,90,0.00,,,0.00,WUHU216HW,2013-01-20 01:36:00,
2013-01-19 17:41:00,32.6,30.0,30.26,NE,45,0.2,1.1,90,0.00,,,0.00,WUHU216HW,2013-01-20 01:41:00,
2013-01-19 17:47:00,32.2,29.7,30.25,NNE,23,0.0,1.6,90,0.00,,,0.00,WUHU216HW,2013-01-20 01:47:00,
2013-01-19 17:52:00,32.2,29.7,30.25,North,0,1.3,1.6,90,0.00,,,0.00,WUHU216HW,2013-01-20 01:52:00,
2013-01-19 17:58:00,32.2,29.7,30.25,NNE,23,0.4,1.3,90,0.00,,,0.00,WUHU216HW,2013-01-20 01:58:00,
2013-01-19 18:03:00,32.0,29.5,30.26,North,0,0.7,1.6,90,0.00,,,0.00,WUHU216HW,2013-01-20 02:03:00,
2013-01-19 18:09:00,32.0,29.3,30.26,NNE,23,1.6,1.6,89,0.00,,,0.00,WUHU216HW,2013-01-20 02:09:00,
2013-01-19 18:14:00,31.9,29.1,30.26,NNE,23,1.6,1.8,89,0.00,,,0.00,WUHU216HW,2013-01-20 02:14:00,
2013-01-19 18:16:00,31.9,29.1,30.26,NE,45,0.4,1.8,89,0.00,,,0.00,WUHU216HW,2013-01-20 02:16:00,
2013-01-19 19:00:00,31.7,28.9,30.26,NNE,23,0.2,0.2,89,0.00,,,0.00,WUHU216HW,2013-01-20 03:00:00,
2013-01-19 20:00:00,32.0,29.5,30.29,East,90,0.0,0.0,90,0.00,,,0.00,WUHU216HW,2013-01-20 04:00:00,
2013-01-19 20:05:00,32.0,29.8,30.29,ESE,113,0.4,0.4,91,0.00,,,0.00,WUHU216HW,2013-01-20 04:05:00,
2013-01-19 20:11:00,32.0,29.5,30.29,ESE,113,0.2,0.4,90,0.00,,,0.00,WUHU216HW,2013-01-20 04:11:00,
2013-01-19 20:14:00,32.0,29.3,30.29,ESE,113,0.2,0.4,89,0.00,,,0.00,WUHU216HW,2013-01-20 04:14:00,
2013-01-19 20:19:00,32.0,29.3,30.30,ESE,113,0.2,0.4,89,0.00,,,0.00,WUHU216HW,2013-01-20 04:19:00,
2013-01-19 20:24:00,32.0,29.3,30.29,ESE,113,0.0,0.4,89,0.00,,,0.00,WUHU216HW,2013-01-20 04:24:00,
2013-01-19 20:29:00,32.0,29.3,30.29,ESE,113,0.0,0.4,89,0.00,,,0.00,WUHU216HW,2013-01-20 04:29:00,
2013-01-19 20:34:00,32.0,29.3,30.30,ESE,113,0.0,0.4,89,0.00,,,0.00,WUHU216HW,2013-01-20 04:34:00,
2013-01-19 20:39:00,32.0,29.5,30.30,ESE,113,0.2,0.2,90,0.00,,,0.00,WUHU216HW,2013-01-20 04:39:00,
2013-01-19 20:44:00,32.0,29.5,30.30,ESE,113,0.2,0.2,90,0.00,,,0.00,WUHU216HW,2013-01-20 04:44:00,
2013-01-19 20:50:00,32.0,29.5,30.30,ESE,113,0.4,0.4,90,0.00,,,0.00,WUHU216HW,2013-01-20 04:50:00,
2013-01-19 20:55:00,32.0,29.5,30.30,ESE,113,0.0,0.9,90,0.00,,,0.00,WUHU216HW,2013-01-20 04:55:00,
2013-01-19 21:00:00,32.0,29.5,30.30,ESE,113,0.4,0.9,90,0.00,,,0.00,WUHU216HW,2013-01-20 05:00:00,
2013-01-19 21:01:00,32.0,29.3,30.30,ESE,113,0.0,0.9,89,0.00,,,0.00,WUHU216HW,2013-01-20 05:01:00,
2013-01-19 21:03:00,32.0,29.3,30.30,ESE,113,0.0,0.7,89,0.00,,,0.00,WUHU216HW,2013-01-20 05:03:00,
2013-01-19 21:08:00,32.0,29.3,30.30,ESE,113,0.2,0.7,89,0.00,,,0.00,WUHU216HW,2013-01-20 05:08:00,
2013-01-19 21:13:00,32.0,29.5,30.30,ESE,113,0.4,0.4,90,0.00,,,0.00,WUHU216HW,2013-01-20 05:13:00,
2013-01-19 21:18:00,32.0,29.8,30.30,ESE,113,0.0,0.4,91,0.00,,,0.00,WUHU216HW,2013-01-20 05:18:00,
2013-01-19 21:23:00,32.0,29.5,30.30,ESE,113,0.4,0.4,90,0.00,,,0.00,WUHU216HW,2013-01-20 05:23:00,
2013-01-19 21:28:00,32.2,30.0,30.31,ESE,113,0.0,0.4,91,0.00,,,0.00,WUHU216HW,2013-01-20 05:28:00,
2013-01-19 21:33:00,32.2,30.0,30.31,ESE,113,0.0,0.4,91,0.00,,,0.00,WUHU216HW,2013-01-20 05:33:00,
2013-01-19 21:38:00,32.2,29.7,30.31,ESE,113,0.0,0.9,90,0.00,,,0.00,WUHU216HW,2013-01-20 05:38:00,
2013-01-19 21:43:00,32.0,29.8,30.31,ESE,113,0.0,1.6,91,0.00,,,0.00,WUHU216HW,2013-01-20 05:43:00,
2013-01-19 21:48:00,32.0,29.5,30.31,ESE,113,0.4,1.6,90,0.00,,,0.00,WUHU216HW,2013-01-20 05:48:00,
2013-01-19 21:54:00,32.2,30.0,30.31,ESE,113,0.9,0.9,91,0.00,,,0.00,WUHU216HW,2013-01-20 05:54:00,
2013-01-19 21:59:00,32.2,30.0,30.31,ESE,113,0.0,0.9,91,0.00,,,0.00,WUHU216HW,2013-01-20 05:59:00,
2013-01-19 22:04:00,32.4,30.1,30.31,ESE,113,0.4,0.9,91,0.00,,,0.00,WUHU216HW,2013-01-20 06:04:00,
2013-01-19 22:09:00,32.4,29.9,30.31,ESE,113,0.0,0.4,90,0.00,,,0.00,WUHU216HW,2013-01-20 06:09:00,
2013-01-19 22:14:00,32.4,29.9,30.32,ESE,113,0.4,0.4,90,0.00,,,0.00,WUHU216HW,2013-01-20 06:14:00,
2013-01-19 22:19:00,32.4,29.9,30.32,ESE,113,0.0,0.4,90,0.00,,,0.00,WUHU216HW,2013-01-20 06:19:00,
2013-01-19 22:24:00,32.2,29.7,30.31,ESE,113,0.4,0.4,90,0.00,,,0.00,WUHU216HW,2013-01-20 06:24:00,
2013-01-19 22:29:00,32.2,29.7,30.31,ESE,113,0.4,0.9,90,0.00,,,0.00,WUHU216HW,2013-01-20 06:29:00,
2013-01-19 22:34:00,32.2,29.7,30.31,ESE,113,0.7,1.1,90,0.00,,,0.00,WUHU216HW,2013-01-20 06:34:00,
2013-01-19 22:39:00,32.2,29.7,30.31,ESE,113,0.9,1.1,90,0.00,,,0.00,WUHU216HW,2013-01-20 06:39:00,
2013-01-19 22:44:00,32.0,29.5,30.31,ESE,113,0.4,1.1,90,0.00,,,0.00,WUHU216HW,2013-01-20 06:44:00,
2013-01-19 22:49:00,32.0,29.5,30.31,ESE,113,0.0,1.1,90,0.00,,,0.00,WUHU216HW,2013-01-20 06:49:00,
2013-01-19 22:54:00,32.0,29.3,30.31,ESE,113,0.0,0.4,89,0.00,,,0.00,WUHU216HW,2013-01-20 06:54:00,
2013-01-19 22:59:00,32.0,29.3,30.31,ESE,113,0.4,0.7,89,0.00,,,0.00,WUHU216HW,2013-01-20 06:59:00,
2013-01-19 23:04:00,32.0,29.3,30.30,ESE,113,0.7,1.3,89,0.00,,,0.00,WUHU216HW,2013-01-20 07:04:00,
2013-01-19 23:09:00,32.0,29.5,30.30,ESE,113,0.4,1.3,90,0.00,,,0.00,WUHU216HW,2013-01-20 07:09:00,
2013-01-19 23:14:00,32.0,29.8,30.31,ESE,113,0.4,0.9,91,0.00,,,0.00,WUHU216HW,2013-01-20 07:14:00,
2013-01-19 23:19:00,32.2,30.0,30.31,ESE,113,0.4,0.9,91,0.00,,,0.00,WUHU216HW,2013-01-20 07:19:00,
2013-01-19 23:24:00,32.0,29.5,30.31,ESE,113,0.0,0.4,90,0.00,,,0.00,WUHU216HW,2013-01-20 07:24:00,
2013-01-19 23:30:00,32.0,29.5,30.32,ESE,113,0.0,0.4,90,0.00,,,0.00,WUHU216HW,2013-01-20 07:30:00,
2013-01-19 23:35:00,32.0,29.5,30.31,ESE,113,0.4,0.7,90,0.00,,,0.00,WUHU216HW,2013-01-20 07:35:00,
2013-01-19 23:40:00,32.0,29.3,30.31,ESE,113,0.2,1.6,89,0.00,,,0.00,WUHU216HW,2013-01-20 07:40:00,
2013-01-19 23:45:00,32.0,29.3,30.31,ESE,113,0.4,1.6,89,0.00,,,0.00,WUHU216HW,2013-01-20 07:45:00,
2013-01-19 23:50:00,31.9,29.1,30.31,ESE,113,0.4,0.4,89,0.00,,,0.00,WUHU216HW,2013-01-20 07:50:00,
2013-01-19 23:55:00,31.9,29.1,30.30,ESE,113,0.9,1.8,89,0.00,,,0.00,WUHU216HW,2013-01-20 07:55:00,